When you browse on this site, cookies collect data to enhance your experience and personalize the content and advertising you see.
Visit our Privacy Policy to learn more. By continuing to use the site, you agree to this use of cookies and data.
  • Em Portugal
  • Lista de países
  • Para 7 dias
  • Temperatura da água
  • Mapas de satélite
  • Mapa do tempo
  • Widgets de tempo
  • user-avatar
    Iniciar Sessão

    Previsão horária em Sari

    Hoje, 20 Novembro, Terça-feira

    Tempo Temperatura Precipitação Vento Pressão Humidade
    00:00 +14°C° 0 mm 2 m/s 764 mmHg 90%
    01:00 +14°C° 0 mm 2 m/s 764 mmHg 89%
    02:00 +14°C° 0 mm 2 m/s 764 mmHg 87%
    03:00 +13°C° 0 mm 2 m/s 763 mmHg 85%
    04:00 +13°C° 0 mm 2 m/s 763 mmHg 84%
    05:00 +13°C° 0 mm 2 m/s 763 mmHg 83%
    06:00 +13°C° 0 mm 2 m/s 763 mmHg 82%
    07:00 +12°C° 0 mm 3 m/s 763 mmHg 81%
    08:00 +14°C° 0 mm 3 m/s 763 mmHg 74%
    09:00 +16°C° 0 mm 3 m/s 763 mmHg 68%
    10:00 +18°C° 0 mm 3 m/s 763 mmHg 59%
    11:00 +18°C° 0 mm 3 m/s 763 mmHg 56%
    12:00 +19°C° 0 mm 3 m/s 762 mmHg 52%
    13:00 +20°C° 0 mm 3 m/s 762 mmHg 49%
    14:00 +20°C° 0 mm 3 m/s 761 mmHg 50%
    15:00 +19°C° 0 mm 3 m/s 761 mmHg 52%
    16:00 +19°C° 0 mm 3 m/s 760 mmHg 53%
    17:00 +18°C° 0 mm 3 m/s 760 mmHg 56%
    18:00 +17°C° 0 mm 2 m/s 760 mmHg 59%
    19:00 +16°C° 0 mm 2 m/s 760 mmHg 62%
    20:00 +16°C° 0 mm 2 m/s 760 mmHg 61%
    21:00 +16°C° 0 mm 2 m/s 760 mmHg 61%
    22:00 +16°C° 0 mm 2 m/s 759 mmHg 60%
    23:00 +16°C° 0 mm 2 m/s 759 mmHg 60%

    Amanhã, 21 Novembro, Quarta-feira

    Tempo Temperatura Precipitação Vento Pressão Humidade
    00:00 +16°C° 0 mm 2 m/s 758 mmHg 60%
    01:00 +16°C° 0 mm 2 m/s 758 mmHg 59%
    02:00 +16°C° 0 mm 2 m/s 758 mmHg 59%
    03:00 +16°C° 0 mm 2 m/s 757 mmHg 59%
    04:00 +15°C° 0 mm 1 m/s 757 mmHg 58%
    05:00 +15°C° 0 mm 1 m/s 757 mmHg 58%
    06:00 +15°C° 0 mm 1 m/s 757 mmHg 57%
    07:00 +15°C° 0 mm 1 m/s 757 mmHg 56%
    08:00 +18°C° 0 mm 1 m/s 757 mmHg 49%
    09:00 +20°C° 0 mm 1 m/s 757 mmHg 41%
    10:00 +22°C° 0 mm 1 m/s 758 mmHg 33%
    11:00 +23°C° 0 mm 2 m/s 758 mmHg 32%
    12:00 +23°C° 0 mm 2 m/s 757 mmHg 30%
    13:00 +24°C° 0 mm 3 m/s 757 mmHg 29%
    14:00 +22°C° 0 mm 3 m/s 757 mmHg 35%
    15:00 +21°C° 0 mm 3 m/s 757 mmHg 42%
    16:00 +20°C° 0 mm 3 m/s 757 mmHg 48%
    17:00 +18°C° 0 mm 2 m/s 758 mmHg 56%
    18:00 +17°C° 0 mm 2 m/s 758 mmHg 64%
    19:00 +15°C° 0 mm 1 m/s 758 mmHg 72%
    20:00 +15°C° 0 mm 1 m/s 758 mmHg 73%
    21:00 +15°C° 0 mm 1 m/s 758 mmHg 73%
    22:00 +15°C° 0 mm 1 m/s 758 mmHg 73%
    23:00 +15°C° 0 mm 2 m/s 758 mmHg 74%

    Depois de amanhã, 22 Novembro, Quinta-feira

    Tempo Temperatura Precipitação Vento Pressão Humidade
    00:00 +14°C° 0 mm 2 m/s 758 mmHg 76%
    01:00 +14°C° 0 mm 2 m/s 758 mmHg 77%
    02:00 +14°C° 0 mm 2 m/s 758 mmHg 78%
    03:00 +14°C° 0 mm 2 m/s 758 mmHg 80%
    04:00 +14°C° 0 mm 2 m/s 758 mmHg 81%
    05:00 +13°C° 0 mm 2 m/s 758 mmHg 80%
    06:00 +13°C° 0 mm 2 m/s 758 mmHg 80%
    07:00 +13°C° 0 mm 2 m/s 758 mmHg 79%
    08:00 +15°C° 0 mm 2 m/s 758 mmHg 74%
    09:00 +16°C° 0 mm 3 m/s 759 mmHg 68%
    10:00 +18°C° 0 mm 3 m/s 759 mmHg 63%
    11:00 +18°C° 0 mm 3 m/s 758 mmHg 61%
    12:00 +19°C° 0 mm 3 m/s 758 mmHg 60%
    13:00 +20°C° 0 mm 3 m/s 757 mmHg 59%
    14:00 +19°C° 0 mm 3 m/s 757 mmHg 62%
    15:00 +19°C° 0 mm 3 m/s 757 mmHg 65%
    16:00 +18°C° 0 mm 3 m/s 757 mmHg 68%
    17:00 +17°C° 0 mm 2 m/s 757 mmHg 72%
    18:00 +16°C° 0 mm 2 m/s 757 mmHg 76%
    19:00 +15°C° 0 mm 2 m/s 758 mmHg 80%
    20:00 +15°C° 0 mm 2 m/s 758 mmHg 76%
    21:00 +15°C° 0 mm 2 m/s 758 mmHg 72%
    22:00 +15°C° 0 mm 2 m/s 758 mmHg 67%
    23:00 +15°C° 0 mm 2 m/s 758 mmHg 64%

    23 Novembro, Sexta-feira

    Tempo Temperatura Precipitação Vento Pressão Humidade
    00:00 +16°C° 0 mm 2 m/s 757 mmHg 62%
    01:00 +16°C° 0 mm 2 m/s 757 mmHg 59%
    02:00 +16°C° 0 mm 2 m/s 757 mmHg 58%
    03:00 +16°C° 0 mm 2 m/s 757 mmHg 57%
    04:00 +16°C° 0 mm 2 m/s 757 mmHg 56%
    05:00 +15°C° 0 mm 2 m/s 757 mmHg 56%
    06:00 +15°C° 0 mm 2 m/s 757 mmHg 57%
    07:00 +15°C° 0 mm 2 m/s 757 mmHg 57%
    08:00 +17°C° 0 mm 2 m/s 757 mmHg 52%
    09:00 +19°C° 0 mm 2 m/s 758 mmHg 48%
    10:00 +20°C° 0 mm 2 m/s 758 mmHg 43%
    11:00 +21°C° 0 mm 2 m/s 757 mmHg 42%
    12:00 +23°C° 0 mm 2 m/s 757 mmHg 41%
    13:00 +24°C° 0 mm 2 m/s 756 mmHg 40%
    14:00 +23°C° 0 mm 2 m/s 756 mmHg 43%
    15:00 +21°C° 0 mm 2 m/s 757 mmHg 47%
    16:00 +21°C° 0 mm 2 m/s 757 mmHg 51%
    17:00 +21°C° 0 mm 1 m/s 757 mmHg 55%
    18:00 +19°C° 0 mm 1 m/s 757 mmHg 60%
    19:00 +18°C° 0 mm 1 m/s 758 mmHg 64%
    20:00 +18°C° 0.1 mm 1 m/s 758 mmHg 66%
    21:00 +18°C° 0.1 mm 1 m/s 759 mmHg 67%
    22:00 +18°C° 0.1 mm 1 m/s 759 mmHg 68%
    23:00 +16°C° 0.2 mm 1 m/s 760 mmHg 73%

    24 Novembro, Sábado

    Tempo Temperatura Precipitação Vento Pressão Humidade
    00:00 +16°C° 0.2 mm 2 m/s 760 mmHg 77%
    01:00 +15°C° 0.2 mm 2 m/s 760 mmHg 82%
    02:00 +15°C° 0.6 mm 2 m/s 761 mmHg 85%
    03:00 +14°C° 0.6 mm 3 m/s 761 mmHg 88%
    04:00 +13°C° 0.6 mm 3 m/s 761 mmHg 91%
    05:00 +13°C° 1.2 mm 4 m/s 762 mmHg 91%
    06:00 +13°C° 1.2 mm 4 m/s 763 mmHg 92%
    07:00 +13°C° 1.2 mm 5 m/s 764 mmHg 92%
    08:00 +13°C° 1.6 mm 5 m/s 765 mmHg 93%
    09:00 +12°C° 1.6 mm 5 m/s 766 mmHg 94%
    10:00 +12°C° 1.6 mm 5 m/s 768 mmHg 95%
    11:00 +10°C° 1.2 mm 5 m/s 768 mmHg 94%
    12:00 +11°C° 1.2 mm 4 m/s 768 mmHg 94%
    13:00 +11°C° 1.2 mm 4 m/s 768 mmHg 93%
    14:00 +11°C° 0.4 mm 4 m/s 768 mmHg 93%
    15:00 +11°C° 0.4 mm 3 m/s 769 mmHg 92%
    16:00 +11°C° 0.4 mm 3 m/s 769 mmHg 92%
    17:00 +11°C° 0.1 mm 3 m/s 769 mmHg 92%
    18:00 +12°C° 0.1 mm 2 m/s 769 mmHg 91%
    19:00 +10°C° 0.1 mm 2 m/s 770 mmHg 91%
    20:00 +10°C° 0 mm 2 m/s 770 mmHg 91%
    21:00 +10°C° 0 mm 2 m/s 769 mmHg 92%
    22:00 +9°C° 0 mm 2 m/s 769 mmHg 92%
    23:00 +9°C° 0 mm 2 m/s 769 mmHg 92%

    25 Novembro, Domingo

    Tempo Temperatura Precipitação Vento Pressão Humidade
    00:00 +9°C° 0 mm 2 m/s 769 mmHg 92%
    01:00 +10°C° 0 mm 1 m/s 768 mmHg 91%
    02:00 +10°C° 0.1 mm 1 m/s 768 mmHg 91%
    03:00 +10°C° 0.1 mm 1 m/s 768 mmHg 91%
    04:00 +10°C° 0.1 mm 1 m/s 767 mmHg 90%
    05:00 +10°C° 0 mm 1 m/s 767 mmHg 91%
    06:00 +10°C° 0 mm 1 m/s 766 mmHg 91%
    07:00 +10°C° 0 mm 1 m/s 766 mmHg 91%
    08:00 +11°C° 0 mm 1 m/s 766 mmHg 87%
    09:00 +12°C° 0 mm 1 m/s 765 mmHg 83%
    10:00 +13°C° 0 mm 1 m/s 765 mmHg 79%
    11:00 +14°C° 0 mm 1 m/s 764 mmHg 76%
    12:00 +14°C° 0 mm 2 m/s 763 mmHg 74%
    13:00 +15°C° 0 mm 2 m/s 762 mmHg 71%
    14:00 +15°C° 0 mm 2 m/s 762 mmHg 73%
    15:00 +14°C° 0 mm 2 m/s 762 mmHg 76%
    16:00 +13°C° 0 mm 1 m/s 761 mmHg 78%
    17:00 +13°C° 0 mm 1 m/s 761 mmHg 82%
    18:00 +12°C° 0 mm 1 m/s 761 mmHg 86%
    19:00 +11°C° 0 mm 1 m/s 761 mmHg 89%
    20:00 +11°C° 0 mm 1 m/s 761 mmHg 89%
    21:00 +11°C° 0 mm 1 m/s 761 mmHg 90%
    22:00 +11°C° 0 mm 1 m/s 761 mmHg 90%
    23:00 +11°C° 0 mm 1 m/s 761 mmHg 89%
    Mostrar mais